GW4578 Weather Reports


time (UTC)temp
F
wind
direction
speed
knots
gust
knots
rain 1hr
in
rain 24hr
in
rain mn
in
humidity
%
barometer
mb
20260507213504 62 49 2.6 7.0 0.00 0.00 0.00 29 1010.2
20260507213013 63 19 2.6 7.0 0.00 0.00 0.00 29 1010.1
20260507212507 62 15 2.6 7.0 0.00 0.00 0.00 29 1010.1
20260507212003 62 49 2.6 6.1 0.00 0.00 0.00 28 1010.1
20260507211519 62 17 3.5 6.1 0.00 0.00 0.00 30 1010.2
20260507211004 62 9 3.5 7.8 0.00 0.00 0.00 29 1010.2
20260507210508 63 360 3.5 7.8 0.00 0.00 0.00 28 1010.1
20260507210002 63 45 5.2 7.8 0.00 0.00 0.00 28 1010.2
20260507205504 64 71 3.5 7.0 0.00 0.00 0.00 27 1010.2
20260507205003 63 9 0.9 7.0 0.00 0.00 0.00 27 1010.2
20260507204507 63 102 2.6 8.7 0.00 0.00 0.00 26 1010.2
20260507204005 63 126 4.3 8.7 0.00 0.00 0.00 27 1010.2
20260507203505 63 95 5.2 8.7 0.00 0.00 0.00 26 1010.2
20260507203014 63 90 4.3 7.8 0.00 0.00 0.00 27 1010.2
20260507202503 62 74 3.5 6.1 0.00 0.00 0.00 29 1010.3
20260507202007 62 51 2.6 3.5 0.00 0.00 0.00 28 1010.4
20260507201519 61 130 1.7 4.3 0.00 0.00 0.00 29 1010.4
20260507201009 61 51 2.6 6.1 0.00 0.00 0.00 31 1010.5
20260507200507 61 141 3.5 6.1 0.00 0.00 0.00 28 1010.6
20260507200019 61 24 0.0 5.2 0.00 0.00 0.00 31 1010.6
20260507195508 61 34 1.7 6.1 0.00 0.00 0.00 29 1010.6
20260507195008 63 119 2.6 6.1 0.00 0.00 0.00 27 1010.6
20260507194505 62 46 1.7 6.1 0.00 0.00 0.00 28 1010.6
20260507194004 62 76 2.6 6.1 0.00 0.00 0.00 26 1010.6
20260507193504 63 111 1.7 7.0 0.00 0.00 0.00 27 1010.7
20260507193010 62 94 1.7 7.0 0.00 0.00 0.00 28 1010.7
20260507192505 61 108 1.7 7.0 0.00 0.00 0.00 28 1010.7
20260507192006 61 65 3.5 7.0 0.00 0.00 0.00 27 1010.7
20260507191514 61 126 1.7 7.0 0.00 0.00 0.00 28 1010.6
20260507191007 61 132 3.5 7.0 0.00 0.00 0.00 27 1010.6
20260507190506 61 40 1.7 7.8 0.00 0.00 0.00 28 1010.6
20260507190019 60 139 2.6 7.8 0.00 0.00 0.00 26 1010.8
20260507185507 60 75 3.5 7.8 0.00 0.00 0.00 27 1010.8
20260507185009 60 288 0.9 6.1 0.00 0.00 0.00 29 1010.8
20260507184521 61 86 2.6 7.0 0.00 0.00 0.00 26 1010.9
20260507184007 60 92 3.5 7.0 0.00 0.00 0.00 27 1010.9
20260507183509 60 84 1.7 7.0 0.00 0.00 0.00 30 1010.9
20260507183025 60 84 0.9 7.0 0.00 0.00 0.00 28 1010.9
20260507182013 61 340 2.6 7.0 0.00 0.00 0.00 32 1011.0
20260507181526 60 28 1.7 7.8 0.00 0.00 0.00 32 1011.0
20260507181013 60 57 3.5 7.8 0.00 0.00 0.00 28 1011.1
20260507180508 59 116 1.7 7.0 0.00 0.00 0.00 28 1011.1
20260507180016 59 116 4.3 7.0 0.00 0.00 0.00 28 1011.1
20260507175507 59 94 1.7 7.0 0.00 0.00 0.00 29 1011.1
20260507175006 60 99 3.5 7.8 0.00 0.00 0.00 27 1011.1
20260507174523 60 86 3.5 7.8 0.00 0.00 0.00 27 1011.1
20260507174007 59 100 4.3 7.8 0.00 0.00 0.00 28 1011.1
20260507173508 58 336 0.9 4.3 0.00 0.00 0.00 30 1011.2
20260507173024 58 174 0.9 7.0 0.00 0.00 0.00 28 1011.2
20260507172508 59 54 1.7 7.0 0.00 0.00 0.00 27 1011.2
20260507171526 57 194 1.7 6.1 0.00 0.00 0.00 28 1011.2
20260507171010 58 12 0.9 6.1 0.00 0.00 0.00 28 1011.2
20260507170028 56 45 2.6 4.3 0.00 0.00 0.00 30 1011.4
20260507165510 55 101 0.9 3.5 0.00 0.00 0.00 31 1011.4
20260507165007 55 93 1.7 3.5 0.00 0.00 0.00 32 1011.4
20260507164517 54 71 0.9 2.6 0.00 0.00 0.00 31 1011.4
20260507164007 54 147 0.9 3.5 0.00 0.00 0.00 32 1011.3
20260507163508 54 111 0.9 5.2 0.00 0.00 0.00 33 1011.3
20260507163025 54 126 2.6 5.2 0.00 0.00 0.00 33 1011.4
20260507162510 54 127 1.7 2.6 0.00 0.00 0.00 34 1011.3
20260507162014 53 30 1.7 2.6 0.00 0.00 0.00 34 1011.4
20260507161525 53 80 1.7 4.3 0.00 0.00 0.00 33 1011.5
20260507161004 53 68 1.7 4.3 0.00 0.00 0.00 33 1011.6
20260507160506 53 47 3.5 6.1 0.00 0.00 0.00 33 1011.6
20260507160012 53 59 2.6 6.1 0.00 0.00 0.00 33 1011.6
20260507155509 53 43 3.5 6.1 0.00 0.00 0.00 33 1011.7
20260507155008 53 17 3.5 7.0 0.00 0.00 0.00 34 1011.7
20260507154518 53 32 4.3 7.0 0.00 0.00 0.00 34 1011.7
20260507154010 53 332 1.7 4.3 0.00 0.00 0.00 34 1011.6
20260507153507 53 11 1.7 4.3 0.00 0.00 0.00 33 1011.5
20260507153028 54 11 2.6 4.3 0.00 0.00 0.00 31 1011.5
20260507152508 54 306 0.9 5.2 0.00 0.00 0.00 32 1011.4
20260507152004 55 5 1.7 5.2 0.00 0.00 0.00 31 1011.4
20260507151508 55 17 2.6 6.1 0.00 0.00 0.00 33 1011.3
20260507151004 54 15 2.6 6.1 0.00 0.00 0.00 31 1011.3
20260507150504 54 26 1.7 6.1 0.00 0.00 0.00 32 1011.4
20260507150013 54 43 3.5 6.1 0.00 0.00 0.00 34 1011.4
20260507145504 53 31 1.7 4.3 0.00 0.00 0.00 30 1011.3
20260507145006 53 21 1.7 4.3 0.00 0.00 0.00 32 1011.3
20260507144518 54 330 0.9 4.3 0.00 0.00 0.00 31 1011.2
20260507144007 53 360 2.6 3.5 0.00 0.00 0.00 31 1011.5
20260507143507 53 347 2.6 3.5 0.00 0.00 0.00 30 1011.5
20260507143026 52 117 0.9 2.6 0.00 0.00 0.00 34 1011.6
20260507142507 51 117 0.9 2.6 0.00 0.00 0.00 36 1011.5
20260507142011 50 117 0.9 1.7 0.00 0.00 0.00 36 1011.5
20260507141526 50 272 0.0 2.6 0.00 0.00 0.00 38 1011.5
20260507141011 49 277 0.0 3.5 0.00 0.00 0.00 39 1011.5
20260507140504 49 360 2.6 5.2 0.00 0.00 0.00 38 1011.5
20260507140013 48 288 1.7 5.2 0.00 0.00 0.00 41 1011.5
20260507135506 46 289 2.6 5.2 0.00 0.00 0.00 43 1011.5
20260507135005 44 264 2.6 5.2 0.00 0.00 0.00 49 1011.4
20260507134514 43 276 2.6 5.2 0.00 0.00 0.00 46 1011.3
20260507134004 44 283 2.6 6.1 0.00 0.00 0.00 47 1011.3
20260507133510 43 273 2.6 6.1 0.00 0.00 0.00 48 1011.3
20260507133021 42 261 2.6 5.2 0.00 0.00 0.00 47 1011.3
20260507132508 42 264 2.6 5.2 0.00 0.00 0.00 46 1011.3
20260507132008 42 252 2.6 7.0 0.00 0.00 0.00 47 1011.1
20260507131532 41 265 4.3 7.0 0.00 0.00 0.00 46 1011.1
20260507131009 41 287 6.1 7.8 0.00 0.00 0.00 46 1011.1
20260507130508 40 270 6.1 7.8 0.00 0.00 0.00 48 1011.1
20260507130025 40 284 5.2 8.7 0.00 0.00 0.00 48 1011.0
20260507125510 39 288 6.1 8.7 0.00 0.00 0.00 49 1010.9
20260507125011 38 268 5.2 8.7 0.00 0.00 0.00 48 1010.8
20260507124515 38 267 5.2 8.7 0.00 0.00 0.00 49 1010.7
20260507124009 38 258 6.1 8.7 0.00 0.00 0.00 49 1010.7
20260507123506 38 273 6.1 8.7 0.00 0.00 0.00 50 1010.6
20260507123022 37 262 6.1 8.7 0.00 0.00 0.00 49 1010.6
20260507122507 37 251 5.2 7.8 0.00 0.00 0.00 50 1010.5
20260507122006 37 267 4.3 7.8 0.00 0.00 0.00 51 1010.5
20260507121518 36 259 4.3 7.8 0.00 0.00 0.00 50 1010.4
20260507121008 36 245 5.2 7.8 0.00 0.00 0.00 50 1010.5
20260507120508 36 257 4.3 7.8 0.00 0.00 0.00 51 1010.4
20260507120022 36 271 6.1 7.8 0.00 0.00 0.00 51 1010.4
20260507115511 35 260 5.2 7.8 0.00 0.00 0.00 51 1010.3
20260507115009 35 267 5.2 8.7 0.00 0.00 0.00 51 1010.3
20260507114523 35 257 5.2 8.7 0.00 0.00 0.00 51 1010.3
20260507114008 35 262 5.2 8.7 0.00 0.00 0.00 51 1010.2
20260507113510 35 276 7.0 8.7 0.00 0.00 0.00 51 1010.2
20260507113012 35 267 4.3 7.8 0.00 0.00 0.00 50 1010.2
20260507112504 36 250 4.3 7.8 0.00 0.00 0.00 50 1010.2
20260507112006 36 268 4.3 7.8 0.00 0.00 0.00 49 1010.2
20260507111518 36 273 5.2 7.8 0.00 0.00 0.00 48 1010.1
20260507111007 37 275 5.2 7.8 0.00 0.00 0.00 47 1010.1
20260507110506 37 259 4.3 8.7 0.00 0.00 0.00 47 1010.0
20260507110022 37 259 4.3 8.7 0.00 0.00 0.00 48 1010.0
20260507105508 37 272 5.2 7.8 0.00 0.00 0.00 48 1010.0
20260507105006 37 273 5.2 8.7 0.00 0.00 0.00 48 1010.0
20260507104528 37 268 5.2 8.7 0.00 0.00 0.00 47 1009.9
20260507104010 37 283 5.2 9.6 0.00 0.00 0.00 47 1009.9
20260507103507 37 279 5.2 9.6 0.00 0.00 0.00 47 1009.8
20260507103029 37 262 5.2 8.7 0.00 0.00 0.00 47 1009.7
20260507102512 37 252 5.2 7.8 0.00 0.00 0.00 48 1009.7
20260507101527 36 265 5.2 8.7 0.00 0.00 0.00 48 1009.7
20260507101005 36 257 6.1 8.7 0.00 0.00 0.00 48 1009.7
20260507100504 36 273 6.1 7.8 0.00 0.00 0.00 48 1009.7
20260507100029 36 263 5.2 7.8 0.00 0.00 0.00 48 1009.7
20260507095508 37 253 6.1 7.8 0.00 0.00 0.00 48 1009.8
20260507095012 37 254 6.1 8.7 0.00 0.00 0.00 47 1009.8
20260507094525 36 266 6.1 8.7 0.00 0.00 0.00 47 1009.8
20260507094007 36 261 4.3 8.7 0.00 0.00 0.00 48 1009.8
20260507093508 37 263 6.1 8.7 0.00 0.00 0.00 47 1009.8
20260507093032 37 262 6.1 8.7 0.00 0.00 0.00 47 1009.8
20260507092514 37 259 6.1 8.7 0.00 0.00 0.00 47 1009.8
20260507092007 37 246 6.1 8.7 0.00 0.00 0.00 46 1009.8
20260507091548 37 254 6.1 8.7 0.00 0.00 0.00 46 1009.7
20260507090511 37 274 5.2 8.7 0.00 0.00 0.00 46 1009.7
20260507085506 37 281 5.2 8.7 0.00 0.00 0.00 47 1009.7
20260507085008 36 260 6.1 8.7 0.00 0.00 0.00 48 1009.7
20260507084527 36 261 5.2 9.6 0.00 0.00 0.00 50 1009.7
20260507084008 36 267 5.2 9.6 0.00 0.00 0.00 51 1009.7
20260507083026 36 259 5.2 7.0 0.00 0.00 0.00 50 1009.6
20260507082508 36 269 3.5 7.8 0.00 0.00 0.00 50 1009.6
20260507081538 36 263 6.1 8.7 0.00 0.00 0.00 49 1009.7
20260507081007 37 256 5.2 7.8 0.00 0.00 0.00 48 1009.6
20260507080510 37 279 5.2 7.8 0.00 0.00 0.00 48 1009.7
20260507080027 37 267 5.2 8.7 0.00 0.00 0.00 47 1009.7
20260507075511 38 257 4.3 8.7 0.00 0.00 0.00 46 1009.7
20260507075014 38 263 5.2 7.8 0.00 0.00 0.00 45 1009.8
20260507074531 38 269 4.3 7.8 0.00 0.00 0.00 45 1009.9
20260507074005 38 274 4.3 8.7 0.00 0.00 0.00 44 1010.0
20260507073023 39 273 5.2 7.8 0.00 0.00 0.00 44 1010.0
20260507072511 39 273 5.2 8.7 0.00 0.00 0.00 44 1010.0
20260507072008 39 248 4.3 8.7 0.00 0.00 0.00 44 1010.0
20260507071526 39 247 5.2 7.8 0.00 0.00 0.00 43 1010.0
20260507071004 39 266 5.2 7.8 0.00 0.00 0.00 43 1010.0
20260507070013 39 262 5.2 7.8 0.00 0.00 0.00 42 1010.0
20260507065004 40 251 5.2 8.7 0.00 0.00 0.00 42 1009.9
20260507064519 40 255 3.5 8.7 0.00 0.00 0.00 41 1010.0
20260507062508 41 267 5.2 8.7 0.00 0.00 0.00 40 1010.1
20260507062006 41 257 6.1 8.7 0.00 0.00 0.00 41 1010.2
20260507061529 41 243 5.2 8.7 0.00 0.00 0.00 41 1010.2
20260507061008 41 261 6.1 8.7 0.00 0.00 0.00 40 1010.2
20260507060007 41 252 5.2 8.7 0.00 0.00 0.00 40 1010.2
20260507054514 42 238 5.2 8.7 0.00 0.00 0.00 40 1010.2
20260507053018 41 272 4.3 7.0 0.00 0.00 0.00 41 1010.2
20260507052007 42 246 3.5 4.3 0.00 0.00 0.00 41 1010.3
20260507051521 42 246 2.6 5.2 0.00 0.00 0.00 41 1010.2
20260507051009 42 242 2.6 5.2 0.00 0.00 0.00 41 1010.2
20260507050506 41 250 2.6 6.1 0.00 0.00 0.00 43 1010.3
20260507050029 39 250 4.3 6.1 0.00 0.00 0.00 46 1010.4
20260507045508 38 121 0.9 1.7 0.00 0.00 0.00 49 1010.4
20260507044526 38 121 0.9 2.6 0.00 0.00 0.00 48 1010.4
20260507043507 39 121 0.9 1.7 0.00 0.00 0.00 50 1010.6
20260507041523 39 121 0.0 1.7 0.00 0.00 0.00 51 1010.9
20260507040023 40 121 0.0 1.7 0.00 0.00 0.00 49 1011.1
20260507035507 41 121 0.0 1.7 0.00 0.00 0.00 48 1011.1
20260507035011 42 121 0.0 1.7 0.00 0.00 0.00 48 1011.2
20260507034522 43 121 0.0 1.7 0.00 0.00 0.00 45 1011.3
20260507034007 44 121 0.0 0.9 0.00 0.00 0.00 48 1011.3
20260507033507 44 121 0.0 1.7 0.00 0.00 0.00 49 1011.3
20260507033015 44 121 0.0 1.7 0.00 0.00 0.00 49 1011.3
20260507031520 45 121 0.9 1.7 0.00 0.00 0.00 47 1011.6
20260507030510 45 121 0.0 1.7 0.00 0.00 0.00 44 1011.7
20260507030025 45 121 0.0 1.7 0.00 0.00 0.00 45 1011.6
20260507025007 45 121 0.0 1.7 0.00 0.00 0.00 43 1011.7
20260507024006 46 121 0.0 1.7 0.00 0.00 0.00 38 1011.7
20260507023510 47 121 0.0 1.7 0.00 0.00 0.00 37 1011.8
20260507023025 47 121 0.0 2.6 0.00 0.00 0.00 39 1011.8
20260507022510 48 121 0.9 2.6 0.00 0.00 0.00 34 1011.8
20260507022011 48 141 0.9 1.7 0.00 0.00 0.00 34 1011.8
20260507021516 48 141 0.9 2.6 0.00 0.00 0.00 34 1011.9
20260507014527 52 287 0.9 1.7 0.00 0.00 0.00 26 1012.0
20260507012514 52 339 0.0 1.7 0.00 0.00 0.00 26 1011.9
20260507012010 53 339 0.9 2.6 0.00 0.00 0.00 27 1012.0
20260507011531 53 337 1.7 2.6 0.00 0.00 0.00 25 1012.0
20260507010020 54 324 2.6 7.0 0.00 0.00 0.00 22 1011.9
20260507005004 54 263 3.5 7.0 0.00 0.00 0.00 22 1012.0
20260507004503 54 271 3.5 7.8 0.00 0.00 0.00 22 1011.9
20260507004004 54 248 1.7 7.8 0.00 0.00 0.00 22 1012.0
20260507003504 55 277 0.9 7.0 0.00 0.00 0.00 21 1011.9
20260507003009 56 257 3.5 7.0 0.00 0.00 0.00 22 1012.0
20260507002503 56 266 3.5 6.1 0.00 0.00 0.00 23 1011.9
20260507002006 55 278 1.7 4.3 0.00 0.00 0.00 23 1012.0
20260507001516 55 323 2.6 6.1 0.00 0.00 0.00 23 1012.2
20260507000503 55 280 1.7 8.7 0.00 0.00 0.00 24 1012.3
20260506235504 55 261 2.6 7.0 0.00 0.00 0.00 23 1012.3
20260506234525 55 297 5.2 9.6 0.00 0.00 0.00 23 1012.5
20260506233004 56 277 3.5 9.6 0.00 0.00 0.00 25 1012.7
20260506232506 56 267 6.1 9.6 0.00 0.00 0.00 24 1012.7
20260506232004 56 274 4.3 9.6 0.00 0.00 0.00 23 1012.6
20260506231512 56 288 5.2 9.6 0.00 0.00 0.00 24 1012.6
20260506231005 56 284 2.6 10.4 0.00 0.00 0.00 20 1012.6
20260506230506 56 254 5.2 10.4 0.00 0.00 0.00 23 1012.8
20260506230015 57 316 5.2 11.3 0.00 0.00 0.00 24 1012.7
20260506224008 57 297 3.5 13.0 0.00 0.00 0.00 26 1012.8
20260506223508 57 272 7.8 13.0 0.00 0.00 0.00 26 1012.9
20260506223021 57 279 6.1 12.2 0.00 0.00 0.00 26 1013.0
20260506222509 56 288 7.0 10.4 0.00 0.00 0.00 26 1012.9
20260506222009 56 333 7.0 15.6 0.00 0.00 0.00 23 1012.9
20260506215006 56 360 8.7 13.0 0.00 0.00 0.00 24 1013.4
20260506214515 57 330 7.8 13.0 0.00 0.00 0.00 23 1013.6
20260506214007 57 306 7.8 15.6 0.00 0.00 0.00 25 1013.6